Location: Anglesey
(53.1800°N, 4.2200°W)
Time: 05:10:46
(UTC+01:00)

OTV 5 (USA 277) - Pass Details

Date: 17 October 2017
Orbit: 404 x 417 km, 43.0° (Epoch: 07 September)

Event Time Altitude Azimuth Distance (km) Brightness Sun altitude
Rises 20:36:44 0° 251° (WSW) 2,356 ? -21.7°
Reaches altitude 10° 20:40:01 10° 216° (SW) 1,491 ? -22.2°
Enters shadow 20:40:47 11° 203° (SSW) 1,412 ? -22.3°
